User: anonymous   Login
Location: Unspecified
(0.0000°N, 0.0000°E)
Time: 08:06:07
(UTC+00:00)
Language:

GRIFEX - Orbit

View from above orbital plane
View from above orbital plane
View from above satellite
View from above satellite

Ground track
Ground track

The orbit data is extracted from the following two-line orbital elements,

1 40379U 15003D   19345.73184376  .00001106  00000-0  51015-4 0  9997
2 40379  99.1211 355.2545 0133191 245.0214 113.7130 15.15923813268250
Epoch (UTC): 11 December 2019 17:33:51
Eccentricity: 0.0133191
inclination: 99.1211°
perigee height: 426 km
apogee height: 610 km
right ascension of ascending node: 355.2545°
argument of perigee: 245.0214°
revolutions per day: 15.15923813
mean anomaly at epoch: 113.7130°
orbit number at epoch: 26825

The dashed part of the orbit path shows where the satellite is in the earth's shadow,  

DLR